EN

Hourly Weather Abay (Saryagashskiy rayon)

Today, 13 June, Sunday

Time Temperature Precipitation Wind Pressure Humidity
00:00 +28°C° 0 mm 5 mps 724 mmHg 24%
01:00 +26°C° 0 mm 4 mps 724 mmHg 25%
02:00 +25°C° 0 mm 3 mps 724 mmHg 26%
03:00 +25°C° 0 mm 3 mps 724 mmHg 27%
04:00 +24°C° 0 mm 3 mps 724 mmHg 28%
05:00 +24°C° 0 mm 2 mps 724 mmHg 29%
06:00 +26°C° 0 mm 2 mps 725 mmHg 27%
07:00 +27°C° 0 mm 2 mps 725 mmHg 25%
08:00 +29°C° 0 mm 2 mps 725 mmHg 23%
09:00 +31°C° 0 mm 3 mps 725 mmHg 21%
10:00 +33°C° 0 mm 3 mps 725 mmHg 19%
11:00 +35°C° 0 mm 3 mps 725 mmHg 17%
12:00 +36°C° 0 mm 4 mps 725 mmHg 16%
13:00 +37°C° 0 mm 5 mps 725 mmHg 14%
14:00 +39°C° 0 mm 5 mps 724 mmHg 12%
15:00 +39°C° 0 mm 6 mps 724 mmHg 12%
16:00 +39°C° 0 mm 6 mps 724 mmHg 11%
17:00 +39°C° 0 mm 7 mps 723 mmHg 11%
18:00 +36°C° 0 mm 7 mps 724 mmHg 11%
19:00 +34°C° 0 mm 7 mps 724 mmHg 12%
20:00 +32°C° 0 mm 7 mps 724 mmHg 12%
21:00 +29°C° 0 mm 7 mps 724 mmHg 12%
22:00 +28°C° 0 mm 6 mps 724 mmHg 13%
23:00 +26°C° 0 mm 5 mps 724 mmHg 13%

Tomorrow, 14 June, Monday

Time Temperature Precipitation Wind Pressure Humidity
00:00 +25°C° 0 mm 5 mps 724 mmHg 15%
01:00 +22°C° 0 mm 4 mps 724 mmHg 17%
02:00 +21°C° 0 mm 3 mps 723 mmHg 19%
03:00 +20°C° 0 mm 3 mps 723 mmHg 22%
04:00 +19°C° 0 mm 3 mps 724 mmHg 24%
05:00 +18°C° 0 mm 2 mps 724 mmHg 26%
06:00 +20°C° 0 mm 2 mps 724 mmHg 24%
07:00 +21°C° 0 mm 2 mps 724 mmHg 22%
08:00 +24°C° 0 mm 2 mps 725 mmHg 21%
09:00 +26°C° 0 mm 3 mps 725 mmHg 19%
10:00 +28°C° 0 mm 3 mps 724 mmHg 17%
11:00 +30°C° 0 mm 3 mps 724 mmHg 15%
12:00 +33°C° 0 mm 3 mps 724 mmHg 14%
13:00 +34°C° 0 mm 2 mps 724 mmHg 12%
14:00 +35°C° 0 mm 2 mps 723 mmHg 11%
15:00 +36°C° 0 mm 2 mps 723 mmHg 10%
16:00 +36°C° 0 mm 2 mps 723 mmHg 8%
17:00 +37°C° 0 mm 2 mps 723 mmHg 7%
18:00 +35°C° 0 mm 3 mps 722 mmHg 9%
19:00 +33°C° 0 mm 5 mps 722 mmHg 10%
20:00 +30°C° 0 mm 6 mps 722 mmHg 11%
21:00 +28°C° 0 mm 6 mps 722 mmHg 13%
22:00 +27°C° 0 mm 6 mps 722 mmHg 14%
23:00 +24°C° 0 mm 6 mps 722 mmHg 16%

Day after tomorrow, 15 June, Tuesday

Time Temperature Precipitation Wind Pressure Humidity
00:00 +23°C° 0 mm 5 mps 722 mmHg 18%
01:00 +22°C° 0 mm 4 mps 722 mmHg 20%
02:00 +20°C° 0 mm 3 mps 721 mmHg 22%
03:00 +20°C° 0 mm 3 mps 722 mmHg 24%
04:00 +19°C° 0 mm 4 mps 722 mmHg 25%
05:00 +18°C° 0 mm 4 mps 722 mmHg 27%
06:00 +20°C° 0 mm 4 mps 723 mmHg 25%
07:00 +22°C° 0 mm 4 mps 724 mmHg 24%
08:00 +25°C° 0 mm 5 mps 724 mmHg 22%
09:00 +27°C° 0 mm 5 mps 724 mmHg 20%
10:00 +29°C° 0 mm 4 mps 725 mmHg 17%
11:00 +32°C° 0 mm 4 mps 725 mmHg 15%
12:00 +33°C° 0 mm 3 mps 724 mmHg 13%
13:00 +34°C° 0 mm 2 mps 724 mmHg 11%
14:00 +35°C° 0 mm 1 mps 724 mmHg 10%
15:00 +35°C° 0 mm 1 mps 723 mmHg 9%
16:00 +36°C° 0 mm 2 mps 723 mmHg 9%
17:00 +37°C° 0 mm 2 mps 723 mmHg 8%
18:00 +35°C° 0 mm 3 mps 723 mmHg 10%
19:00 +33°C° 0 mm 4 mps 722 mmHg 12%
20:00 +30°C° 0 mm 4 mps 722 mmHg 14%
21:00 +29°C° 0 mm 4 mps 722 mmHg 17%
22:00 +27°C° 0 mm 4 mps 722 mmHg 19%
23:00 +26°C° 0 mm 5 mps 722 mmHg 22%

16 June, Wednesday

Time Temperature Precipitation Wind Pressure Humidity
00:00 +25°C° 0 mm 4 mps 722 mmHg 24%
01:00 +23°C° 0 mm 4 mps 722 mmHg 26%
02:00 +21°C° 0 mm 3 mps 722 mmHg 28%
03:00 +21°C° 0 mm 3 mps 722 mmHg 28%
04:00 +20°C° 0 mm 3 mps 722 mmHg 29%
05:00 +20°C° 0 mm 3 mps 722 mmHg 29%
06:00 +22°C° 0 mm 3 mps 723 mmHg 27%
07:00 +25°C° 0 mm 4 mps 723 mmHg 26%
08:00 +26°C° 0 mm 4 mps 724 mmHg 24%
09:00 +29°C° 0 mm 4 mps 724 mmHg 22%
10:00 +32°C° 0 mm 4 mps 724 mmHg 19%
11:00 +34°C° 0 mm 3 mps 724 mmHg 17%
12:00 +35°C° 0 mm 3 mps 724 mmHg 15%
13:00 +36°C° 0 mm 2 mps 723 mmHg 13%
14:00 +37°C° 0 mm 2 mps 723 mmHg 10%
15:00 +37°C° 0 mm 2 mps 723 mmHg 10%
16:00 +37°C° 0 mm 1 mps 723 mmHg 9%
17:00 +37°C° 0 mm 1 mps 722 mmHg 9%
18:00 +36°C° 0 mm 2 mps 722 mmHg 11%
19:00 +34°C° 0 mm 3 mps 722 mmHg 14%
20:00 +30°C° 0 mm 4 mps 722 mmHg 17%
21:00 +29°C° 0 mm 4 mps 723 mmHg 20%
22:00 +27°C° 0 mm 4 mps 723 mmHg 23%
23:00 +26°C° 0 mm 4 mps 723 mmHg 26%

17 June, Thursday

Time Temperature Precipitation Wind Pressure Humidity
00:00 +25°C° 0 mm 3 mps 723 mmHg 28%
01:00 +24°C° 0 mm 2 mps 723 mmHg 29%
02:00 +24°C° 0 mm 2 mps 723 mmHg 30%
03:00 +23°C° 0 mm 2 mps 723 mmHg 31%
04:00 +23°C° 0 mm 1 mps 723 mmHg 31%
05:00 +22°C° 0 mm 1 mps 723 mmHg 32%
06:00 +24°C° 0 mm 2 mps 724 mmHg 28%
07:00 +26°C° 0 mm 3 mps 724 mmHg 25%
08:00 +29°C° 0 mm 4 mps 724 mmHg 22%
09:00 +30°C° 0 mm 4 mps 724 mmHg 20%
10:00 +33°C° 0 mm 4 mps 724 mmHg 18%
11:00 +35°C° 0 mm 4 mps 724 mmHg 17%
12:00 +36°C° 0 mm 3 mps 724 mmHg 15%
13:00 +37°C° 0 mm 2 mps 723 mmHg 13%
14:00 +38°C° 0 mm 2 mps 723 mmHg 11%
15:00 +38°C° 0 mm 2 mps 723 mmHg 11%
16:00 +38°C° 0 mm 2 mps 723 mmHg 11%
17:00 +38°C° 0 mm 3 mps 723 mmHg 11%
18:00 +37°C° 0 mm 3 mps 723 mmHg 12%
19:00 +35°C° 0 mm 3 mps 723 mmHg 14%
20:00 +33°C° 0 mm 3 mps 723 mmHg 15%
21:00 +31°C° 0 mm 3 mps 723 mmHg 18%
22:00 +29°C° 0 mm 3 mps 723 mmHg 21%
23:00 +27°C° 0 mm 3 mps 723 mmHg 24%

18 June, Friday

Time Temperature Precipitation Wind Pressure Humidity
00:00 +26°C° 0 mm 3 mps 723 mmHg 26%
01:00 +25°C° 0 mm 3 mps 723 mmHg 28%
02:00 +24°C° 0 mm 2 mps 723 mmHg 30%
03:00 +24°C° 0 mm 2 mps 723 mmHg 32%
04:00 +23°C° 0 mm 2 mps 723 mmHg 33%
05:00 +23°C° 0 mm 2 mps 723 mmHg 35%
06:00 +25°C° 0 mm 2 mps 723 mmHg 30%
07:00 +28°C° 0 mm 2 mps 724 mmHg 26%
08:00 +30°C° 0 mm 2 mps 724 mmHg 22%
09:00 +32°C° 0 mm 2 mps 724 mmHg 19%
10:00 +35°C° 0 mm 2 mps 724 mmHg 16%
11:00 +37°C° 0 mm 2 mps 724 mmHg 14%
12:00 +38°C° 0 mm 2 mps 724 mmHg 12%
13:00 +39°C° 0 mm 2 mps 724 mmHg 10%
14:00 +40°C° 0 mm 2 mps 723 mmHg 8%
15:00 +40°C° 0 mm 2 mps 723 mmHg 8%
16:00 +40°C° 0 mm 2 mps 723 mmHg 7%
17:00 +41°C° 0 mm 2 mps 723 mmHg 7%
18:00 +39°C° 0 mm 3 mps 723 mmHg 9%
19:00 +37°C° 0 mm 3 mps 723 mmHg 11%
20:00 +34°C° 0 mm 4 mps 723 mmHg 13%
21:00 +33°C° 0 mm 4 mps 723 mmHg 14%
22:00 +32°C° 0 mm 4 mps 723 mmHg 15%
23:00 +29°C° 0 mm 4 mps 724 mmHg 16%
Show more